This is the latest recevied weather packets stored in our database for station/object SP1BMW-13. If no packets are shown the sender has not sent any weather packets the latest 1 day(s).
| Time | Temp. | Humidity | Pressure | Rain* | Wind** | Luminosity | Snow |
|---|---|---|---|---|---|---|---|
| 1777986767 | 14.44° C | 84% | 1008.4 hPa | 0 mm | 1.34 m/s, 46° | 182 W/m² | - |
| 1777986707 | 14.44° C | 85% | 1008.4 hPa | 0 mm | 0.89 m/s, 56° | 191 W/m² | - |
| 1777986647 | 14.44° C | 85% | 1008.6 hPa | 0 mm | 0.45 m/s, 45° | 198 W/m² | - |
| 1777986587 | 14.44° C | 86% | 1008.5 hPa | 0 mm | 0.45 m/s, 335° | 204 W/m² | - |
| 1777986527 | 14.44° C | 85% | 1008.5 hPa | 0 mm | 0.45 m/s, 56° | 207 W/m² | - |
| 1777986467 | 14.44° C | 85% | 1008.6 hPa | 0 mm | 0.45 m/s, 31° | 210 W/m² | - |
| 1777986406 | 14.44° C | 86% | 1008.3 hPa | 0 mm | 0.45 m/s, 354° | 209 W/m² | - |
| 1777986346 | 14.44° C | 86% | 1008.6 hPa | 0 mm | 0 m/s | 216 W/m² | - |
| 1777986286 | 14.44° C | 87% | 1008.4 hPa | 0 mm | 0.45 m/s, 27° | 245 W/m² | - |
| 1777986227 | 14.44° C | 87% | 1008.6 hPa | 0 mm | 0 m/s | 280 W/m² | - |
| 1777986168 | 14.44° C | 86% | 1008.4 hPa | 0 mm | 0.89 m/s, 36° | 288 W/m² | - |
| 1777986107 | 14.44° C | 87% | 1008.5 hPa | 0 mm | 1.34 m/s, 40° | 281 W/m² | - |
| 1777986047 | 13.89° C | 88% | 1008.4 hPa | 0 mm | 0.45 m/s, 344° | 274 W/m² | - |
| 1777985987 | 13.89° C | 87% | 1008.3 hPa | 0 mm | 0.45 m/s, 344° | 244 W/m² | - |
| 1777985927 | 13.89° C | 87% | 1008.5 hPa | 0 mm | 0.89 m/s, 27° | 224 W/m² | - |
| 1777985867 | 13.89° C | 87% | 1008.5 hPa | 0 mm | 0.89 m/s, 336° | 209 W/m² | - |
| 1777985807 | 13.89° C | 86% | 1008.5 hPa | 0 mm | 0.89 m/s, 35° | 195 W/m² | - |
| 1777985748 | 13.89° C | 87% | 1008.5 hPa | 0 mm | 0.45 m/s, 358° | 174 W/m² | - |
| 1777985687 | 13.89° C | 87% | 1008.7 hPa | 0 mm | 0.45 m/s, 25° | 166 W/m² | - |
| 1777985627 | 13.89° C | 86% | 1008.6 hPa | 0 mm | 0.89 m/s, 56° | 163 W/m² | - |
| 1777985567 | 13.89° C | 86% | 1008.7 hPa | 0 mm | 1.34 m/s, 57° | 161 W/m² | - |
| 1777985507 | 13.89° C | 86% | 1008.7 hPa | 0 mm | 0.89 m/s, 41° | 153 W/m² | - |
| 1777985447 | 13.89° C | 88% | 1008.7 hPa | 0 mm | 0.45 m/s, 47° | 145 W/m² | - |
| 1777985387 | 13.89° C | 88% | 1008.8 hPa | 0 mm | 0 m/s | 142 W/m² | - |
| 1777985327 | 13.89° C | 87% | 1008.7 hPa | 0 mm | 0 m/s | 143 W/m² | - |
* Rain latest hour (hover to see other rain measurements)
** Current wind speed in m/s (hover to see current wind gust speed)